Regional Weather Roundup
Issued by NWS Cleveland, OH

Home | Current Version | Previous Version | Graphics & Text | Print | Product List | Glossary On
Versions: 1 2 3 4 5 6 7 8 9 10 11 12 13 14 15 16 17 18 19 20 21 22 23 24 25 26 27 28 29 30 31 32 33 34 35 36 37 38 39 40 41 42 43 44 45 46 47 48 49 50
000
ASUS41 KCLE 012102
RWRCLE
OHIO REGIONAL WEATHER ROUNDUP
NATIONAL WEATHER SERVICE CLEVELAND, OH
500 PM EDT SAT AUG 01 2015

NOTE: "FAIR" INDICATES FEW OR NO CLOUDS BELOW 12,000 FEET WITH NO
SIGNIFICANT WEATHER AND/OR OBSTRUCTIONS TO VISIBILITY.

OHZ001>008-015>018-024>027-034-035-043-044-012200-
   NORTHWEST OHIO

CITY           SKY/WX    TMP DP  RH WIND       PRES   REMARKS
DEFIANCE       MOSUNNY   85  52  32 W13G21    29.93F
FINDLAY        MOSUNNY   83  52  34 W10       29.92F
TOLEDO EXPRESS SUNNY     82  52  35 W13       29.91F
TOLEDO EXEC    MOSUNNY   84  50  30 W17G24    29.91F
LIMA           MOSUNNY   82  54  37 W8        29.95F
$$

OHZ009>014-019>023-028>033-038-089-012200-
   NORTHEAST OHIO

CITY           SKY/WX    TMP DP  RH WIND       PRES   REMARKS
CLE-HOPKINS    MOSUNNY   83  49  30 NW13      29.93F
CLE-LAKEFRONT  MOSUNNY   79  56  45 W16       29.90F
CUY CO. ARPT   MOSUNNY   81  55  41 W16       29.92F
LORAIN-ELYRIA  CLOUDY    79  55  43 NW8       29.92F
ASHTABULA      MOSUNNY   80  51  36 W9        29.91F
AKRON-CANTON   MOSUNNY   81  53  37 NW12G20   29.93F
WOOSTER        MOSUNNY   81  56  42 W10       29.94F
MANSFIELD      MOSUNNY   78  52  40 W10       29.95F
YOUNGSTOWN     MOSUNNY   79  51  37 NW13G23   29.92S
$$

OHZ042-051>053-060>062-070>072-077>081-012200-
  SOUTHWEST OHIO

CITY           SKY/WX    TMP DP  RH WIND       PRES   REMARKS
CINC-COVINGTON PTSUNNY   83  56  39 NW9       29.99S
CINC-LUNKEN    MOSUNNY   80  56  43 NW6       29.98S
HAMILTON       SUNNY     84  56  38 VRB5G18   29.98F
DAYTON         MOSUNNY   82  55  39 NW9       29.99S
WRIGHT-PAT AFB NOT AVBL
DAYTON GENERAL MOSUNNY   82  53  36 NW9       29.98S
WILMINGTON     MOSUNNY   81  54  39 NW6       29.98F
$$

OHZ036-037-039>041-045>050-054>059-063>069-073>076-082>088-012200-
  CENTRAL AND SOUTHEAST OHIO

CITY           SKY/WX    TMP DP  RH WIND       PRES   REMARKS
COLUMBUS       MOSUNNY   79  53  40 W9        29.94F
OSU AIRPORT    MOSUNNY   79  57  46 NW9       29.95F
BOLTON FIELD   SUNNY     81  57  44 W5        29.97S
RICKENBACK AFB MOSUNNY   81  57  42 W12       29.95S
NEWARK         MOSUNNY   84  54  35 W12       29.94F
MARION         PTSUNNY   79  51  37 NW8       29.95F
LANCASTER      MOSUNNY   81  57  43 W8        29.96S
ZANESVILLE     SUNNY     83  52  34 W9        29.94F
NEW PHILLY     PTSUNNY   77  57  50 W3        29.94S
$$



USA.gov is the U.S. government's official web portal to all federal, state and local government web resources and services.